This is the latest recevied weather packets stored in our database for station/object KC3AWA. If no packets are shown the sender has not sent any weather packets the latest 10 day(s).
| Time | Temp. | Humidity | Pressure | Rain* | Wind** | Luminosity | Snow |
|---|---|---|---|---|---|---|---|
| 1778130811 | 5° C | 77% | 1014.5 hPa | 0 mm | - | 0 W/m² | - |
| 1778130508 | 5° C | 75% | 1014.5 hPa | 0 mm | - | 0 W/m² | - |
| 1778130204 | 5° C | 75% | 1014.5 hPa | 0 mm | - | 0 W/m² | - |
| 1778129901 | 5° C | 75% | 1014.6 hPa | 0 mm | - | 0 W/m² | - |
| 1778129598 | 5° C | 75% | 1014.6 hPa | 0 mm | - | 0 W/m² | - |
| 1778129295 | 5° C | 74% | 1014.7 hPa | 0 mm | - | 0 W/m² | - |
| 1778128992 | 5.56° C | 74% | 1014.8 hPa | 0 mm | - | 0 W/m² | - |
| 1778128688 | 5.56° C | 74% | 1014.6 hPa | 0 mm | - | 0 W/m² | - |
| 1778128384 | 5.56° C | 74% | 1014.8 hPa | 0 mm | - | 0 W/m² | - |
| 1778128081 | 5.56° C | 74% | 1014.8 hPa | 0 mm | - | 0 W/m² | - |
| 1778127776 | 5.56° C | 72% | 1014.8 hPa | 0 mm | - | 0 W/m² | - |
| 1778127474 | 5.56° C | 73% | 1014.9 hPa | 0 mm | - | 0 W/m² | - |
| 1778127170 | 5.56° C | 71% | 1014.9 hPa | 0 mm | - | 0 W/m² | - |
| 1778126867 | 5.56° C | 72% | 1015 hPa | 0 mm | - | 0 W/m² | - |
| 1778126563 | 5.56° C | 72% | 1014.8 hPa | 0 mm | - | 0 W/m² | - |
| 1778126259 | 5.56° C | 72% | 1014.7 hPa | 0 mm | - | 0 W/m² | - |
| 1778125955 | 6.11° C | 71% | 1014.7 hPa | 0 mm | - | 0 W/m² | - |
| 1778125653 | 6.11° C | 70% | 1014.7 hPa | 0 mm | - | 0 W/m² | - |
| 1778125349 | 6.11° C | 71% | 1014.7 hPa | 0 mm | - | 0 W/m² | - |
| 1778125048 | 6.11° C | 70% | 1014.7 hPa | 0 mm | - | 0 W/m² | - |
| 1778124745 | 6.11° C | 71% | 1014.8 hPa | 0 mm | - | 0 W/m² | - |
| 1778124442 | 6.11° C | 73% | 1014.8 hPa | 0 mm | - | 0 W/m² | - |
| 1778124138 | 6.11° C | 73% | 1014.8 hPa | 0 mm | - | 0 W/m² | - |
| 1778123835 | 6.11° C | 74% | 1014.8 hPa | 0 mm | - | 0 W/m² | - |
| 1778123531 | 6.11° C | 69% | 1014.8 hPa | 0 mm | - | 0 W/m² | - |
* Rain latest hour (hover to see other rain measurements)
** Current wind speed in m/s (hover to see current wind gust speed)